Location: Big Prairie
(40.6673°N, 82.0952°W)
Time: 00:47:59
(UTC+00:00)

Cosmos 841 Rocket - Pass Details

Date: 07 July 2022
Orbit: 745 x 772 km, 74.0° (Epoch: 15 August)

Event Time Altitude Azimuth Distance (km) Brightness Sun altitude
Exits shadow 07:52:35 17° 271° (W) 1,857 5.2 -19.0°
Maximum altitude 07:54:40 21° 302° (WNW) 1,658 5.2 -18.7°
Drops below altitude 10° 07:58:31 10° 350° (N) 2,285 6.6 -18.3°
Sets 08:01:29 0° 7° (N) 3,219 7.8 -18.0°
